Weather in Zhadritsy

Russia / Pskov Oblast     56°55′34″N   29°09′45″E
temp.,
°C
wind,
m/s
gust,
m/s
humid.,
%
clouds,
%
prec.,
mm/h
press.,
hPa
HPBL,
m
19 may, wed
wed1900:00+14ne1197100 0.9 100111
03:00+14ese2798100 0.9 1000239
06:00+14se1197100 0.0 100031
09:00+14ese1199100 1.3 100033
12:00+15s1396100 0.7 999212
15:00+17wsw3490100 3.2 1000593
18:00+15wsw249771 7.4 1002308
21:00+13wsw2597100 7.9 1004286
20 may, thu
thu2000:00+11wnw2598100 0.0 1005263
03:00+10wnw3597100 0.0 1005357
06:00+9wnw3798100 0.1 1005436
09:00+9nw3798100 1.4 1005487
12:00+9wnw4999100 5.6 1004587
15:00+10wnw41098100 16.4 1004692
18:00+9wnw41098100 4.1 1005683
21:00+8nw31295100 4.8 1007779
21 may, fri
fri2100:00+7wsw3119789 0.0 1007366
03:00+6wsw412965 0.0 1008434
06:00+5sw411960 0.0 1009386
09:00+10sw59660 0.0 1010899
12:00+14wsw694668 0.0 10102304
15:00+15wsw6114949 0.6 10102335
18:00+15wsw511495 0.0 10112583
21:00+11sw5116920 0.0 1013697
22 may, sat
sat2200:00+9ssw3107968 0.0 1013347
03:00+8ssw3128271 0.0 1014345
06:00+9s41477100 0.0 1013437
09:00+13s51365100 0.0 1012784
12:00+15ssw61670100 0.4 10112139
15:00+14sw41177100 0.9 10121151
18:00+13s41187100 0.4 1011665
21:00+12ssw2597100 2.5 1011194
23 may, sun
sun2300:00+11se2696100 0.4 1010141
03:00+11sse41492100 0.4 1008430
06:00+11sse31191100 0.1 1007340
09:00+13sse4991100 0.3 1005518
12:00+14s51489100 1.4 10041320
15:00+13sw599496 1.9 1003766
18:00+13sw488844 0.3 1005740
21:00+11sw4109475 0.6 1006541